Location: Newark
(51.0967°N, 24.7917°E)
Time: 02:01:07
(UTC+00:00)

STARLINK-1310 - Pass Details

Date: 02 April 2020
Orbit: 549 x 550 km, 53.0° (Epoch: 05 June)

Event Time Altitude Azimuth Distance (km) Brightness Sun altitude
Exits shadow 02:17:36 26° 262° (W) 1,116 4.6 -15.1°
Maximum altitude 02:19:53 79° 345° (NNW) 570 3.6 -14.8°
Drops below altitude 10° 02:24:05 10° 74° (ENE) 1,840 7.6 -14.2°
Sets 02:26:20 0° 76° (ENE) 2,736 8.9 -13.9°
